King Salmon, AK

3:35 PM AKDT on July 27, 2017 (GMT -0800)
King Salmon

Weather History for PAKN - April, 2013

Change the Weather History Date:

Sunday, April 7, 2013

  Actual Average Record
Temperature  
Mean Temperature 12 °F 30 °F  
Max Temperature 19 °F 39 °F 56 °F (1940)
Min Temperature 4 °F 22 °F -13 °F (1956)
Degree Days  
Heating Degree Days 53 35  
Month to date heating degree days 257 250  
Since 1 July heating degree days 9461 9136  
Cooling Degree Days 0 0  
Month to date cooling degree days 0 0  
Year to date cooling degree days 0 0  
Moisture  
Dew Point 0 °F    
Average Humidity 0    
Maximum Humidity 0    
Minimum Humidity 0    
Precipitation  
Precipitation 0.00 in 0.03 in 0.40 in (2011)
Month to date precipitation 0.01 0.21  
Year to date precipitation 5.84 2.69  
Snow  
Snow 0.00 in 0.20 in - ()
Month to date snowfall T 1.4  
Since 1 July snowfall 73.7 43.3  
Snow Depth 0.00 in    
Sea Level Pressure  
Sea Level Pressure 29.87 in    
Wind  
Wind Speed 9 mph (North)    
Max Wind Speed 16 mph    
Max Gust Speed 21 mph    
Visibility 10 miles    
Events      
T = Trace of Precipitation, MM = Missing Value Source: NWS Daily Summary

Daily Weather History Graph

Daily Weather History Graph

Search for Another Location

Airport or City:

Trip Planner

Search our weather history database for the weather conditions in past years. The results will help you decide how hot, cold, wet, or windy it might be!

Date:

Astronomy

Apr. 07, 2013 Rise Set
Actual Time 7:35 AM AKDT 9:23 PM AKDT
Civil Twilight 6:52 AM AKDT 10:05 PM AKDT
Nautical Twilight 5:59 AM AKDT 10:59 PM AKDT
Astronomical Twilight 4:55 AM AKDT 12:04 AM AKDT
Moon 6:30 AM AKDT (4/7) 6:42 PM AKDT (4/7)
Length of Visible Light 15h 13m
Length of Day
13h 48m
Waning Crescent, 7% of the Moon is Illuminated
Apr 7
Waning Crescent
Apr 10
New
Apr 18
First Quarter
Apr 25
Full
May 2
Last Quarter

Hourly Weather History & Observations

Time (AKDT) Temp. Windchill Dew Point Humidity Pressure Visibility Wind Dir Wind Speed Gust Speed Precip Events Conditions
12:54 AM 10.9 °F -1.8 °F 1.0 °F 64% 29.76 in 10.0 mi NNE 9.2 mph - N/A   Clear
1:54 AM 9.0 °F 0.6 °F 1.0 °F 70% 29.78 in 10.0 mi NNE 4.6 mph - N/A   Clear
2:54 AM 8.1 °F -4.3 °F 1.0 °F 73% 29.80 in 10.0 mi North 8.1 mph - N/A   Clear
3:54 AM 7.0 °F -6.6 °F -0.0 °F 73% 29.81 in 10.0 mi North 9.2 mph - N/A   Clear
4:54 AM 7.0 °F -3.3 °F -0.9 °F 70% 29.83 in 10.0 mi North 5.8 mph - N/A   Clear
5:54 AM 6.1 °F -5.6 °F -2.0 °F 69% 29.84 in 10.0 mi North 6.9 mph - N/A   Clear
6:54 AM 5.0 °F -6.9 °F -2.0 °F 73% 29.86 in 10.0 mi NNW 6.9 mph - N/A   Clear
7:54 AM 3.9 °F -9.4 °F -2.9 °F 73% 29.87 in 10.0 mi North 8.1 mph - N/A   Clear
8:54 AM 6.1 °F -8.7 °F -4.0 °F 63% 29.89 in 10.0 mi North 10.4 mph - N/A   Clear
9:54 AM 9.0 °F -6.6 °F -2.9 °F 59% 29.90 in 10.0 mi NNE 12.7 mph - N/A   Clear
10:54 AM 10.9 °F -3.4 °F -2.0 °F 56% 29.91 in 10.0 mi North 11.5 mph - N/A   Clear
11:54 AM 12.9 °F -0.9 °F -0.0 °F 56% 29.92 in 10.0 mi North 11.5 mph - N/A   Clear
12:54 PM 14.0 °F 0.5 °F -0.0 °F 54% 29.92 in 10.0 mi NE 11.5 mph - N/A   Clear
1:54 PM 16.0 °F 3.6 °F -0.0 °F 49% 29.92 in 10.0 mi North 10.4 mph - N/A   Partly Cloudy
2:54 PM 17.1 °F 5.0 °F 1.0 °F 50% 29.92 in 10.0 mi North 10.4 mph - N/A   Partly Cloudy
3:54 PM 18.0 °F 8.7 °F 1.0 °F 48% 29.91 in 10.0 mi North 6.9 mph - N/A   Partly Cloudy
4:54 PM 18.0 °F 5.4 °F 1.0 °F 48% 29.89 in 10.0 mi North 11.5 mph 16.1 mph N/A   Partly Cloudy
5:54 PM 18.0 °F 6.9 °F 1.0 °F 48% 29.89 in 10.0 mi North 9.2 mph 16.1 mph N/A   Partly Cloudy
6:54 PM 19.0 °F 8.2 °F 1.9 °F 47% 29.88 in 10.0 mi North 9.2 mph - N/A   Partly Cloudy
7:54 PM 17.1 °F 5.8 °F 1.9 °F 52% 29.88 in 10.0 mi North 9.2 mph - N/A   Clear
8:54 PM 16.0 °F 5.3 °F -0.0 °F 49% 29.88 in 10.0 mi North 8.1 mph - N/A   Clear
9:54 PM 12.9 °F 2.6 °F 1.0 °F 59% 29.89 in 10.0 mi North 6.9 mph - N/A   Clear
10:54 PM 10.9 °F 1.4 °F 1.9 °F 67% 29.89 in 10.0 mi North 5.8 mph - N/A   Clear
11:54 PM 10.0 °F 0.4 °F 3.0 °F 73% 29.90 in 10.0 mi NNW 5.8 mph - N/A   Clear